格洛纳斯M-759 COSMOS 2544 [GLONASS-M]

导读 | 星芒AI

COSMOS 2544 是一颗俄罗斯 GLONASS-M 系统的导航卫星,于2019年12月17日由联盟号火箭从普列谢茨克航天发射场发射。该卫星用于增强俄罗斯全球导航卫星系统(GLONASS)的定位、导航和授时能力。GLONASS-M 是 GLONASS 系列的改进型,具备更长的使用寿命和更高的精度。COSMOS 2544 运行在中地球轨道,为俄罗斯及全球用户提供关键的导航服务,并支持军事和民用应用。

基本信息
目录编号:
44850
目录名称:
COSMOS 2544 (GLONASS)
国际标识:
2019-088A
轨道中心:
EARTH
卫星名称:
格洛纳斯M-759
卫星全名:
格洛纳斯M-759 COSMOS 2544 [GLONASS-M]
卫星状态:
在轨 (已飞行2152 天)
发射日期:
2019-12-11 UTC
国别 :
俄罗斯(独联体) (CIS)
星等 :
--
轨道信息
数据来源 国际轨道数据 AOE轨道数据
星历时间 2025-10-27T14:36:54+0800
5天前
查看轨道信息
2025-10-29T00:00:00+0800
3天前
查看轨道信息
半长轴 25508.025km 25507.985km
偏心率 0.0012464 0.0012626
轨道倾角 65.436° 65.436°
近地点辐角 245.763° 245.890°
升交点赤经 81.512° 81.465°
平近点角 114.104° 101.133°
近地点 19098.096km 19097.643km
远地点 19161.684km 19162.057km
周期 675.733分钟 675.731分钟
每日圈数 2.13102 2.131025
详细信息
平衡模式:
三轴稳定
覆盖范围:
全球
运营商:
列舍特涅夫卫星信息系统
运营商所在国:
俄罗斯
制造商(研发单位):
列舍特涅夫卫星信息系统
制造商所在国:
俄罗斯
使用方式:
暂无
卫星简介
格洛纳斯(GLONASS )是苏联/俄罗斯研制卫星导航系统。标准配置为24颗卫星,其中18颗卫星就能保证该系统为俄罗斯境内用户提供全部服务。该卫星仍在工作。
2D轨道图
3D轨道图
轨道高度分析图
轨道倾角分析图
轨道综合分析图
查看轨道综合分析图